User: anonymous   Login
Location: Fort Wayne
(41.1310°N, 85.1290°W)
Time: 03:47:30
(UTC-04:00)
Language:

Cosmos 1000 Rocket - Orbit

View from above orbital plane
View from above orbital plane
View from above satellite
View from above satellite

Ground track
Ground track

The orbit data is extracted from the following two-line orbital elements,

1 10777U 78034B   18147.92643127 -.00000052 +00000-0 -67009-4 0  9994
2 10777 082.9405 334.1651 0025116 314.6328 152.2602 13.77401261017825
Epoch (UTC): 27 May 2018 22:14:03
Eccentricity: 0.0025116
inclination: 82.9405°
perigee height: 954 km
apogee height: 991 km
right ascension of ascending node: 334.1651°
argument of perigee: 314.6328°
revolutions per day: 13.77401261
mean anomaly at epoch: 152.2602°
orbit number at epoch: 1782

The dashed part of the orbit path shows where the satellite is in the earth's shadow,  

DLR